Tarawa Terrace, NC

8:28 AM EST on February 11, 2016 (GMT -0500)
New River Marine Corps Air Station

Weather History for KNCA - April, 2014

Change the Weather History Date:

Friday, April 25, 2014

  Actual Average Record
Temperature  
Mean Temperature 64 °F -  
Max Temperature 79 °F 72 °F 88 °F (2006)
Min Temperature 52 °F 50 °F 39 °F (2005)
Growing Degree Days 14 (Base 50)    
Moisture  
Dew Point 64 °F    
Average Humidity 86    
Maximum Humidity 100    
Minimum Humidity 64    
Precipitation  
Precipitation 0.06 in - - ()
Sea Level Pressure  
Sea Level Pressure 29.87 in    
Wind  
Wind Speed 8 mph (South)    
Max Wind Speed 22 mph    
Max Gust Speed 37 mph    
Averages and records for this station are not official NWS values.
T = Trace of Precipitation, MM = Missing Value Source: NWS Daily Summary

Daily Weather History Graph

Daily Weather History Graph

Search for Another Location

Airport or City:

Trip Planner

Search our weather history database for the weather conditions in past years. The results will help you decide how hot, cold, wet, or windy it might be!

Date:

Astronomy

Apr. 25, 2014 Rise Set
Actual Time 6:26 AM EDT 7:49 PM EDT
Civil Twilight 5:59 AM EDT 8:16 PM EDT
Nautical Twilight 5:27 AM EDT 8:48 PM EDT
Astronomical Twilight 4:54 AM EDT 9:21 PM EDT
Moon 4:02 AM EDT (4/25) 4:18 PM EDT (4/25)
Length of Visible Light 14h 17m
Length of Day
13h 23m
Waning Crescent, 15% of the Moon is Illuminated
Apr 25
Waning Crescent
Apr 29
New
May 6
First Quarter
May 14
Full
May 21
Last Quarter

Hourly Weather History & Observations

Time (EDT) Temp. Dew Point Humidity Pressure Visibility Wind Dir Wind Speed Gust Speed Precip Events Conditions
12:56 AM 52.0 °F 52.0 °F 100% 30.04 in - Calm Calm - N/A   Scattered Clouds
1:56 AM 53.1 °F 53.1 °F 100% 30.01 in - Calm Calm - N/A   Scattered Clouds
2:56 AM 57.0 °F 57.0 °F 100% 29.99 in - ESE 4.6 mph - N/A   Mostly Cloudy
3:56 AM 55.9 °F 55.9 °F 100% 30.00 in - Calm Calm - N/A   Partly Cloudy
4:56 AM 54.0 °F 54.0 °F 100% 30.01 in - Calm Calm - N/A   Scattered Clouds
5:56 AM 54.0 °F 54.0 °F 100% 29.99 in - Calm Calm - N/A   Clear
6:56 AM 55.9 °F 55.9 °F 100% 30.00 in - Calm Calm - N/A   Clear
7:56 AM 63.0 °F 63.0 °F 100% 29.99 in - ESE 4.6 mph - N/A   Partly Cloudy
8:56 AM 69.1 °F 66.9 °F 93% 29.97 in - SSE 6.9 mph - N/A   Clear
9:56 AM 73.0 °F 66.9 °F 81% 29.96 in - SSE 16.1 mph - N/A   Clear
10:56 AM 75.0 °F 68.0 °F 79% 29.96 in - SSE 19.6 mph 24.2 mph N/A   Scattered Clouds
11:56 AM 72.0 °F 68.0 °F 87% 29.94 in - South 12.7 mph 20.7 mph N/A   Overcast
12:56 PM 75.9 °F 63.0 °F 64% 29.91 in - SSE 12.7 mph - 0.00 in   Mostly Cloudy
1:56 PM 75.9 °F 64.9 °F 69% 29.88 in - South 16.1 mph 21.9 mph N/A   Mostly Cloudy
2:05 PM 77.0 °F 66.0 °F 69% 29.86 in - South 16.1 mph 23.0 mph N/A   Mostly Cloudy
2:56 PM 75.0 °F 66.0 °F 73% 29.85 in - South 19.6 mph 27.6 mph N/A   Overcast
3:12 PM 75.9 °F 66.0 °F 71% 29.82 in - SSE 17.3 mph 29.9 mph N/A   Mostly Cloudy
3:36 PM 75.9 °F 68.0 °F 76% 29.81 in - South 15.0 mph 28.8 mph N/A   Mostly Cloudy
3:56 PM 75.9 °F 70.0 °F 82% 29.80 in - South 16.1 mph 29.9 mph N/A   Mostly Cloudy
4:32 PM 77.0 °F 68.0 °F 74% 29.78 in - South 18.4 mph 33.4 mph N/A   Scattered Clouds
4:56 PM 77.0 °F 68.0 °F 74% 29.77 in - South 19.6 mph 27.6 mph N/A   Partly Cloudy
5:03 PM 75.9 °F 68.0 °F 76% 29.76 in - South 21.9 mph 33.4 mph N/A   Mostly Cloudy
5:54 PM 75.2 °F 69.8 °F 83% 29.74 in - SSW 20.7 mph 36.8 mph N/A   Partly Cloudy
5:56 PM 75.0 °F 69.1 °F 82% 29.75 in - South 21.9 mph 29.9 mph N/A   Partly Cloudy
6:56 PM 72.0 °F 66.9 °F 84% 29.73 in - South 15.0 mph 26.5 mph N/A   Mostly Cloudy
7:56 PM 70.0 °F 64.9 °F 84% 29.72 in - SSW 13.8 mph - N/A   Clear
8:56 PM 69.1 °F 63.0 °F 81% 29.74 in - SSW 11.5 mph - N/A Thunderstorm Thunderstorm
9:14 PM 69.1 °F 64.0 °F 84% 29.74 in - SSW 12.7 mph 18.4 mph N/A   Mostly Cloudy
9:56 PM 64.9 °F 64.9 °F 100% 29.81 in - West 5.8 mph - 0.06 in Thunderstorm Thunderstorm
10:28 PM 64.9 °F 64.9 °F 100% 29.80 in - WSW 4.6 mph - N/A   Overcast
10:56 PM 64.9 °F 64.9 °F 100% 29.82 in - WSW 6.9 mph - N/A   Mostly Cloudy
11:56 PM 64.0 °F 62.1 °F 93% 29.83 in - West 6.9 mph - N/A   Partly Cloudy